VTK503 UNKL-UOOO

Flight info

Callsign VTK503
Flight time 2h 8m
Altitude 38000
Route BASEL2F BASEL B938 SURIP B247 WD A228 PTG G490 OLURI OLURI1F
Aircraft A319/M-SDE3FGHIRWY/LB1

Departure

Time 2026-05-08 06:32
Airport Krasnoyarsk International Airport (UNKL)

Arrival

Time 2026-05-08 08:40
Airport Alykel International Airport (UOOO)
Time Latitude Longitude Altitude Speed Heading
2026-05-08 05:21 56.17945 92.48535 951 ft 0 kts 20°
2026-05-08 06:24 56.17935 92.48529 951 ft 2 kts 25°
2026-05-08 06:25 56.17920 92.48517 950 ft 2 kts 30°
2026-05-08 06:25 56.17906 92.48502 950 ft 2 kts 35°
2026-05-08 06:25 56.17893 92.48484 949 ft 2 kts 47°
2026-05-08 06:25 56.17883 92.48461 951 ft 2 kts 71°
2026-05-08 06:26 56.17880 92.48431 950 ft 2 kts 102°
2026-05-08 06:26 56.17883 92.48413 950 ft 1 kts 114°
2026-05-08 06:27 56.17882 92.48416 950 ft 2 kts 114°
2026-05-08 06:27 56.17827 92.48440 951 ft 17 kts 191°
2026-05-08 06:27 56.17709 92.48435 950 ft 14 kts 136°
2026-05-08 06:28 56.17706 92.48509 951 ft 8 kts 88°
2026-05-08 06:28 56.17682 92.48626 951 ft 12 kts 117°
2026-05-08 06:28 56.17643 92.48795 949 ft 17 kts 112°
2026-05-08 06:28 56.17591 92.49016 951 ft 21 kts 114°
2026-05-08 06:29 56.17526 92.49287 950 ft 26 kts 113°
2026-05-08 06:29 56.17450 92.49608 951 ft 30 kts 113°
2026-05-08 06:29 56.17368 92.49945 950 ft 29 kts 113°
2026-05-08 06:29 56.17287 92.50281 951 ft 28 kts 113°
2026-05-08 06:30 56.17207 92.50410 951 ft 14 kts 189°
2026-05-08 06:30 56.17113 92.50349 950 ft 15 kts 201°
2026-05-08 06:30 56.17064 92.50285 949 ft 0 kts 290°
2026-05-08 06:30 56.17067 92.50272 949 ft 2 kts 292°
2026-05-08 06:31 56.17076 92.50231 948 ft 6 kts 292°
2026-05-08 06:31 56.17173 92.49804 949 ft 79 kts 293°
2026-05-08 06:31 56.17501 92.48418 953 ft 158 kts 292°
2026-05-08 06:31 56.17969 92.46461 1523 ft 174 kts 291°
2026-05-08 06:32 56.18425 92.44427 2523 ft 178 kts 290°
2026-05-08 06:32 56.18940 92.42268 3150 ft 200 kts 291°
2026-05-08 06:32 56.19525 92.39835 3625 ft 225 kts 291°
2026-05-08 06:32 56.20181 92.37110 4206 ft 248 kts 291°
2026-05-08 06:33 56.20876 92.34224 5158 ft 255 kts 291°
2026-05-08 06:33 56.21599 92.31281 6221 ft 261 kts 295°
2026-05-08 06:33 56.22801 92.28790 7184 ft 271 kts 320°
2026-05-08 06:33 56.24422 92.27015 8172 ft 276 kts 330°
2026-05-08 06:34 56.26202 92.25525 9148 ft 281 kts 333°
2026-05-08 06:34 56.27983 92.24118 10068 ft 285 kts 333°
2026-05-08 06:34 56.29878 92.22568 10544 ft 306 kts 332°
2026-05-08 06:34 56.31834 92.20867 11209 ft 317 kts 331°
2026-05-08 06:35 56.33811 92.19061 12064 ft 321 kts 330°
2026-05-08 06:35 56.35799 92.17185 12957 ft 324 kts 329°
2026-05-08 06:35 56.37796 92.15267 13823 ft 327 kts 329°
2026-05-08 06:35 56.39803 92.13294 14570 ft 331 kts 328°
2026-05-08 06:36 56.41781 92.11135 15308 ft 334 kts 325°
2026-05-08 06:36 56.43738 92.08842 16038 ft 337 kts 324°
2026-05-08 06:36 56.45700 92.06478 16776 ft 341 kts 323°
2026-05-08 06:36 56.47686 92.04082 17507 ft 345 kts 323°
2026-05-08 06:37 56.49693 92.01677 18233 ft 348 kts 323°
2026-05-08 06:37 56.51727 91.99259 18875 ft 352 kts 324°
2026-05-08 06:37 56.53788 91.96827 19528 ft 354 kts 324°
2026-05-08 06:37 56.55862 91.94387 20194 ft 357 kts 324°
2026-05-08 06:38 56.57954 91.91929 20859 ft 360 kts 324°
2026-05-08 06:38 56.60061 91.89449 21512 ft 362 kts 324°
2026-05-08 06:38 56.62182 91.86948 22166 ft 365 kts 325°
2026-05-08 06:38 56.64323 91.84417 22797 ft 368 kts 325°
2026-05-08 06:39 56.66477 91.81863 23424 ft 372 kts 325°
2026-05-08 06:39 56.68652 91.79280 23962 ft 374 kts 325°
2026-05-08 06:39 56.70129 91.77522 24318 ft 376 kts 325°
2026-05-08 06:39 56.72325 91.74903 24831 ft 379 kts 325°
2026-05-08 06:40 56.74539 91.72265 25334 ft 382 kts 325°
2026-05-08 06:40 56.76737 91.69534 25826 ft 384 kts 323°
2026-05-08 06:40 56.78895 91.66647 26319 ft 386 kts 321°
2026-05-08 06:40 56.81721 91.62678 26955 ft 389 kts 320°
2026-05-08 06:41 56.83165 91.60622 27272 ft 391 kts 320°
2026-05-08 06:41 56.85317 91.57558 27744 ft 393 kts 320°
2026-05-08 06:41 56.87487 91.54495 28211 ft 396 kts 320°
2026-05-08 06:41 56.89678 91.51423 28688 ft 398 kts 321°
2026-05-08 06:42 56.91891 91.48342 29150 ft 401 kts 321°
2026-05-08 06:42 56.94130 91.45273 29600 ft 404 kts 323°
2026-05-08 06:42 56.96582 91.42696 30021 ft 410 kts 333°
2026-05-08 06:42 56.99278 91.40905 30398 ft 416 kts 342°
2026-05-08 06:43 57.02129 91.39846 30766 ft 420 kts 346°
2026-05-08 06:43 57.05014 91.38882 31130 ft 422 kts 346°
2026-05-08 06:43 57.07909 91.37908 31493 ft 425 kts 346°
2026-05-08 06:43 57.10826 91.36926 31837 ft 427 kts 346°
2026-05-08 06:44 57.13754 91.35942 32185 ft 429 kts 346°
2026-05-08 06:44 57.16694 91.34953 32572 ft 430 kts 346°
2026-05-08 06:44 57.19626 91.33966 33064 ft 428 kts 346°
2026-05-08 06:44 57.22555 91.32979 33562 ft 427 kts 346°
2026-05-08 06:45 57.25472 91.31996 34026 ft 425 kts 345°
2026-05-08 06:45 57.28378 91.31015 34438 ft 424 kts 345°
2026-05-08 06:45 57.31283 91.30028 34819 ft 424 kts 345°
2026-05-08 06:45 57.34179 91.29038 35181 ft 424 kts 345°
2026-05-08 06:46 57.37079 91.28043 35539 ft 423 kts 345°
2026-05-08 06:46 57.39975 91.27048 35878 ft 423 kts 345°
2026-05-08 06:46 57.42863 91.26057 36220 ft 422 kts 345°
2026-05-08 06:46 57.45754 91.25068 36545 ft 422 kts 345°
2026-05-08 06:47 57.48639 91.24079 36871 ft 421 kts 345°
2026-05-08 06:47 57.51561 91.23078 37193 ft 421 kts 345°
2026-05-08 06:47 57.54441 91.22094 37496 ft 421 kts 345°
2026-05-08 06:47 57.57316 91.21111 37781 ft 421 kts 345°
2026-05-08 06:48 57.63049 91.19152 37872 ft 415 kts 345°
2026-05-08 06:48 57.68713 91.17181 37880 ft 414 kts 344°
2026-05-08 06:49 57.74369 91.15220 37874 ft 413 kts 344°
2026-05-08 06:49 57.80029 91.13260 37874 ft 413 kts 344°
2026-05-08 06:50 57.85678 91.11278 37888 ft 413 kts 344°
2026-05-08 06:50 57.91333 91.09286 37891 ft 414 kts 344°
2026-05-08 06:51 57.96991 91.07301 37899 ft 414 kts 344°
2026-05-08 06:51 58.02655 91.05321 37906 ft 414 kts 344°
2026-05-08 06:52 58.08312 91.03316 37913 ft 414 kts 343°
2026-05-08 06:52 58.13972 91.01301 37915 ft 414 kts 343°
2026-05-08 06:53 58.19633 90.99281 37916 ft 414 kts 343°
2026-05-08 06:53 58.25292 90.97259 37924 ft 414 kts 343°
2026-05-08 06:54 58.30958 90.95228 37928 ft 414 kts 343°
2026-05-08 06:54 58.36659 90.93188 37933 ft 414 kts 343°
2026-05-08 06:55 58.42322 90.91153 37943 ft 414 kts 343°
2026-05-08 06:55 58.47988 90.89083 37949 ft 414 kts 343°
2026-05-08 06:56 58.53651 90.87014 37955 ft 415 kts 343°
2026-05-08 06:56 58.59308 90.84910 37960 ft 414 kts 342°
2026-05-08 06:57 58.64969 90.82776 37969 ft 415 kts 342°
2026-05-08 06:57 58.70639 90.80646 37971 ft 415 kts 342°
2026-05-08 06:58 58.76301 90.78513 37982 ft 415 kts 342°
2026-05-08 06:58 58.81972 90.76368 37977 ft 415 kts 342°
2026-05-08 06:59 58.87641 90.74217 37980 ft 415 kts 342°
2026-05-08 06:59 58.93311 90.72057 37986 ft 415 kts 342°
2026-05-08 07:00 58.98986 90.69885 37989 ft 415 kts 342°
2026-05-08 07:00 59.04656 90.67709 37989 ft 416 kts 342°
2026-05-08 07:01 59.10332 90.65537 37992 ft 416 kts 342°
2026-05-08 07:01 59.16010 90.63352 37995 ft 416 kts 342°
2026-05-08 07:02 59.21730 90.61122 37995 ft 416 kts 342°
2026-05-08 07:02 59.27412 90.58915 37994 ft 417 kts 342°
2026-05-08 07:03 59.33098 90.56699 37992 ft 417 kts 341°
2026-05-08 07:03 59.38790 90.54467 37992 ft 417 kts 341°
2026-05-08 07:04 59.44474 90.52219 37988 ft 417 kts 341°
2026-05-08 07:04 59.50163 90.49973 37986 ft 417 kts 341°
2026-05-08 07:05 59.55858 90.47729 37988 ft 417 kts 341°
2026-05-08 07:05 59.61549 90.45482 37998 ft 417 kts 341°
2026-05-08 07:06 59.67243 90.43209 37997 ft 417 kts 341°
2026-05-08 07:06 59.72929 90.40923 37996 ft 417 kts 341°
2026-05-08 07:07 59.78625 90.38636 37996 ft 417 kts 341°
2026-05-08 07:07 59.84322 90.36348 37998 ft 418 kts 341°
2026-05-08 07:08 59.90020 90.34062 37998 ft 418 kts 341°
2026-05-08 07:08 59.95720 90.31754 37992 ft 418 kts 341°
2026-05-08 07:09 60.01420 90.29429 37997 ft 418 kts 340°
2026-05-08 07:09 60.07127 90.27091 37995 ft 418 kts 340°
2026-05-08 07:10 60.12834 90.24763 38003 ft 419 kts 341°
2026-05-08 07:10 60.18585 90.22415 37998 ft 419 kts 340°
2026-05-08 07:11 60.24294 90.20058 38003 ft 419 kts 341°
2026-05-08 07:11 60.30179 90.18899 38001 ft 427 kts 348°
2026-05-08 07:12 60.35112 90.18274 38004 ft 428 kts 348°
2026-05-08 07:12 60.41053 90.17527 38002 ft 428 kts 348°
2026-05-08 07:13 60.46996 90.16744 38005 ft 428 kts 348°
2026-05-08 07:13 60.52936 90.15938 38010 ft 428 kts 348°
2026-05-08 07:14 60.58884 90.15145 38005 ft 428 kts 348°
2026-05-08 07:14 60.64835 90.14370 38001 ft 429 kts 348°
2026-05-08 07:15 60.70827 90.13575 38001 ft 429 kts 348°
2026-05-08 07:15 60.76746 90.12768 38005 ft 429 kts 348°
2026-05-08 07:16 60.82743 90.11953 38004 ft 429 kts 348°
2026-05-08 07:16 60.88702 90.11151 38006 ft 429 kts 348°
2026-05-08 07:17 60.94669 90.10333 38005 ft 430 kts 348°
2026-05-08 07:17 61.00629 90.09521 38001 ft 430 kts 348°
2026-05-08 07:18 61.06599 90.08714 38004 ft 430 kts 348°
2026-05-08 07:18 61.12565 90.07888 38004 ft 430 kts 348°
2026-05-08 07:19 61.18536 90.07062 38007 ft 430 kts 348°
2026-05-08 07:19 61.24508 90.06249 38007 ft 430 kts 348°
2026-05-08 07:20 61.30470 90.05435 38006 ft 430 kts 348°
2026-05-08 07:20 61.36440 90.04608 38008 ft 430 kts 348°
2026-05-08 07:21 61.42408 90.03776 38007 ft 430 kts 348°
2026-05-08 07:21 61.48368 90.02945 38007 ft 429 kts 348°
2026-05-08 07:22 61.54327 90.02116 38010 ft 429 kts 348°
2026-05-08 07:22 61.60271 90.01140 38009 ft 424 kts 342°
2026-05-08 07:23 61.66009 89.98667 38011 ft 421 kts 340°
2026-05-08 07:23 61.71742 89.96163 38008 ft 421 kts 340°
2026-05-08 07:24 61.77513 89.93638 38007 ft 421 kts 340°
2026-05-08 07:24 61.83244 89.91116 38007 ft 421 kts 340°
2026-05-08 07:25 61.88983 89.88574 38006 ft 421 kts 340°
2026-05-08 07:26 61.97585 89.84750 38008 ft 421 kts 340°
2026-05-08 07:26 62.03325 89.82186 38008 ft 421 kts 340°
2026-05-08 07:27 62.09066 89.79620 38010 ft 422 kts 340°
2026-05-08 07:27 62.14817 89.77068 38004 ft 422 kts 340°
2026-05-08 07:28 62.20565 89.74493 38003 ft 422 kts 340°
2026-05-08 07:28 62.26329 89.71887 38011 ft 423 kts 340°
2026-05-08 07:29 62.32083 89.69280 38010 ft 423 kts 340°
2026-05-08 07:29 62.37838 89.66661 38006 ft 423 kts 340°
2026-05-08 07:30 62.43616 89.64018 38006 ft 424 kts 340°
2026-05-08 07:30 62.49425 89.61365 38007 ft 424 kts 340°
2026-05-08 07:31 62.55198 89.58714 38005 ft 424 kts 340°
2026-05-08 07:31 62.60937 89.56055 38004 ft 425 kts 340°
2026-05-08 07:32 62.66749 89.53342 38005 ft 425 kts 340°
2026-05-08 07:32 62.72532 89.50654 38006 ft 425 kts 340°
2026-05-08 07:33 62.78329 89.47961 38000 ft 425 kts 340°
2026-05-08 07:33 62.84122 89.45251 38007 ft 426 kts 340°
2026-05-08 07:34 62.89911 89.42521 38002 ft 426 kts 340°
2026-05-08 07:34 62.95706 89.39764 38001 ft 426 kts 340°
2026-05-08 07:35 63.01492 89.37014 38005 ft 426 kts 341°
2026-05-08 07:35 63.07293 89.34247 37987 ft 426 kts 340°
2026-05-08 07:36 63.13087 89.31469 37994 ft 426 kts 341°
2026-05-08 07:36 63.18891 89.28710 37997 ft 427 kts 341°
2026-05-08 07:37 63.24694 89.25956 37994 ft 427 kts 341°
2026-05-08 07:37 63.30506 89.23194 37987 ft 427 kts 341°
2026-05-08 07:38 63.36317 89.20404 37987 ft 427 kts 341°
2026-05-08 07:38 63.42127 89.17603 37988 ft 427 kts 341°
2026-05-08 07:39 63.47968 89.14789 37982 ft 428 kts 341°
2026-05-08 07:39 63.53796 89.11952 37985 ft 428 kts 341°
2026-05-08 07:40 63.59600 89.09101 37978 ft 428 kts 341°
2026-05-08 07:40 63.65435 89.06261 37977 ft 428 kts 341°
2026-05-08 07:41 63.71245 89.03407 37967 ft 429 kts 341°
2026-05-08 07:41 63.77073 89.00531 37965 ft 429 kts 341°
2026-05-08 07:42 63.82922 88.97623 37963 ft 429 kts 341°
2026-05-08 07:42 63.88746 88.94722 37961 ft 430 kts 341°
2026-05-08 07:43 63.94597 88.91796 37960 ft 430 kts 341°
2026-05-08 07:43 64.00440 88.88860 37956 ft 430 kts 341°
2026-05-08 07:44 64.06286 88.85924 37953 ft 430 kts 341°
2026-05-08 07:44 64.12124 88.82962 37955 ft 430 kts 341°
2026-05-08 07:45 64.17966 88.79988 37953 ft 431 kts 341°
2026-05-08 07:45 64.22863 88.77475 37944 ft 431 kts 341°
2026-05-08 07:46 64.28729 88.74448 37947 ft 431 kts 341°
2026-05-08 07:46 64.34558 88.71450 37944 ft 431 kts 341°
2026-05-08 07:47 64.40427 88.68426 37942 ft 431 kts 341°
2026-05-08 07:47 64.46288 88.65389 37940 ft 431 kts 341°
2026-05-08 07:48 64.52140 88.62319 37937 ft 431 kts 341°
2026-05-08 07:48 64.57995 88.59255 37932 ft 432 kts 341°
2026-05-08 07:49 64.63863 88.56185 37932 ft 432 kts 341°
2026-05-08 07:49 64.69724 88.53087 37927 ft 432 kts 341°
2026-05-08 07:50 64.75620 88.49941 37927 ft 432 kts 341°
2026-05-08 07:50 64.81482 88.46806 37920 ft 432 kts 341°
2026-05-08 07:51 64.87349 88.43662 37918 ft 432 kts 341°
2026-05-08 07:51 64.93214 88.40498 37904 ft 432 kts 341°
2026-05-08 07:52 64.99082 88.37329 37913 ft 433 kts 341°
2026-05-08 07:52 65.04949 88.34160 37907 ft 433 kts 341°
2026-05-08 07:53 65.10831 88.31042 37910 ft 433 kts 342°
2026-05-08 07:53 65.16710 88.27943 37909 ft 433 kts 342°
2026-05-08 07:54 65.22596 88.24818 37911 ft 433 kts 342°
2026-05-08 07:54 65.28482 88.21671 37902 ft 433 kts 342°
2026-05-08 07:55 65.34365 88.18501 37903 ft 433 kts 342°
2026-05-08 07:55 65.40248 88.15339 37901 ft 434 kts 342°
2026-05-08 07:56 65.46141 88.12169 37902 ft 434 kts 342°
2026-05-08 07:56 65.52032 88.08961 37897 ft 434 kts 342°
2026-05-08 07:57 65.57918 88.05729 37897 ft 434 kts 342°
2026-05-08 07:57 65.63848 88.02472 37898 ft 434 kts 342°
2026-05-08 07:58 65.69701 87.99259 37891 ft 434 kts 342°
2026-05-08 07:58 65.75625 87.95980 37888 ft 434 kts 342°
2026-05-08 07:59 65.81584 87.93268 37878 ft 440 kts 351°
2026-05-08 07:59 65.87705 87.92375 37878 ft 441 kts 352°
2026-05-08 08:00 65.93831 87.91511 37877 ft 441 kts 352°
2026-05-08 08:00 65.99956 87.90627 37869 ft 441 kts 352°
2026-05-08 08:01 66.06082 87.89730 37871 ft 441 kts 352°
2026-05-08 08:01 66.12210 87.88834 37862 ft 441 kts 352°
2026-05-08 08:02 66.18346 87.87935 37859 ft 441 kts 352°
2026-05-08 08:02 66.24475 87.87021 37859 ft 441 kts 352°
2026-05-08 08:03 66.30611 87.86091 37853 ft 441 kts 352°
2026-05-08 08:03 66.36742 87.85137 37842 ft 441 kts 352°
2026-05-08 08:04 66.42873 87.84169 37841 ft 442 kts 352°
2026-05-08 08:04 66.49009 87.83224 37835 ft 442 kts 352°
2026-05-08 08:05 66.55185 87.82258 37825 ft 442 kts 352°
2026-05-08 08:05 66.61279 87.81304 37821 ft 442 kts 352°
2026-05-08 08:06 66.67452 87.80342 37821 ft 442 kts 352°
2026-05-08 08:06 66.73596 87.79372 37812 ft 442 kts 352°
2026-05-08 08:07 66.79730 87.78381 37809 ft 442 kts 352°
2026-05-08 08:07 66.85869 87.77390 37803 ft 442 kts 352°
2026-05-08 08:08 66.92010 87.76394 37795 ft 442 kts 352°
2026-05-08 08:08 66.98147 87.75402 37792 ft 442 kts 352°
2026-05-08 08:09 67.04289 87.74406 37790 ft 442 kts 352°
2026-05-08 08:09 67.10431 87.73377 37781 ft 442 kts 352°
2026-05-08 08:10 67.16569 87.72257 37775 ft 442 kts 352°
2026-05-08 08:10 67.22705 87.71122 37769 ft 442 kts 352°
2026-05-08 08:11 67.28846 87.70029 37761 ft 442 kts 352°
2026-05-08 08:11 67.34994 87.68930 37755 ft 442 kts 352°
2026-05-08 08:12 67.41139 87.67818 37748 ft 443 kts 352°
2026-05-08 08:12 67.47319 87.66680 37738 ft 443 kts 352°
2026-05-08 08:13 67.53474 87.65545 37438 ft 447 kts 352°
2026-05-08 08:13 67.56597 87.64963 36710 ft 451 kts 352°
2026-05-08 08:13 67.59717 87.64380 36143 ft 448 kts 352°
2026-05-08 08:13 67.62816 87.63802 35660 ft 445 kts 352°
2026-05-08 08:14 67.65885 87.63232 35199 ft 441 kts 352°
2026-05-08 08:14 67.68931 87.62673 34756 ft 436 kts 352°
2026-05-08 08:14 67.71947 87.62115 34317 ft 432 kts 352°
2026-05-08 08:14 67.74932 87.61558 33884 ft 428 kts 352°
2026-05-08 08:15 67.77897 87.61003 33423 ft 425 kts 352°
2026-05-08 08:15 67.80826 87.60462 32946 ft 420 kts 352°
2026-05-08 08:15 67.83730 87.59923 32486 ft 416 kts 352°
2026-05-08 08:15 67.86601 87.59380 32033 ft 411 kts 352°
2026-05-08 08:16 67.89437 87.58833 31586 ft 407 kts 352°
2026-05-08 08:16 67.92249 87.58286 31154 ft 403 kts 352°
2026-05-08 08:16 67.95033 87.57747 30732 ft 399 kts 352°
2026-05-08 08:16 67.97792 87.57213 30327 ft 395 kts 352°
2026-05-08 08:17 68.00521 87.56681 29941 ft 392 kts 352°
2026-05-08 08:17 68.03224 87.56155 29513 ft 388 kts 352°
2026-05-08 08:17 68.05905 87.55644 29038 ft 384 kts 353°
2026-05-08 08:17 68.08559 87.55143 28589 ft 380 kts 353°
2026-05-08 08:18 68.11184 87.54647 28163 ft 377 kts 353°
2026-05-08 08:18 68.13784 87.54152 27747 ft 373 kts 353°
2026-05-08 08:18 68.16362 87.53654 27323 ft 369 kts 352°
2026-05-08 08:18 68.18084 87.53319 27051 ft 367 kts 352°
2026-05-08 08:19 68.20620 87.52818 26636 ft 363 kts 352°
2026-05-08 08:19 68.23128 87.52318 26205 ft 360 kts 352°
2026-05-08 08:19 68.25614 87.51828 25778 ft 357 kts 352°
2026-05-08 08:19 68.28080 87.51347 25354 ft 354 kts 352°
2026-05-08 08:20 68.30526 87.50869 24925 ft 350 kts 352°
2026-05-08 08:20 68.32945 87.50392 24497 ft 347 kts 352°
2026-05-08 08:20 68.35342 87.49917 24072 ft 344 kts 352°
2026-05-08 08:20 68.37725 87.49442 23648 ft 342 kts 352°
2026-05-08 08:21 68.40083 87.48971 23232 ft 339 kts 352°
2026-05-08 08:21 68.42428 87.48504 22736 ft 336 kts 352°
2026-05-08 08:21 68.44751 87.48046 22267 ft 334 kts 352°
2026-05-08 08:21 68.47055 87.47588 21795 ft 331 kts 352°
2026-05-08 08:22 68.49349 87.47131 21341 ft 329 kts 352°
2026-05-08 08:22 68.51624 87.46677 20919 ft 327 kts 352°
2026-05-08 08:22 68.53883 87.46226 20485 ft 324 kts 352°
2026-05-08 08:22 68.56125 87.45777 20069 ft 322 kts 352°
2026-05-08 08:23 68.58348 87.45330 19658 ft 320 kts 352°
2026-05-08 08:23 68.60561 87.44877 19251 ft 318 kts 352°
2026-05-08 08:23 68.62757 87.44427 18868 ft 316 kts 352°
2026-05-08 08:23 68.64939 87.43984 18496 ft 314 kts 352°
2026-05-08 08:24 68.67108 87.43546 18121 ft 312 kts 352°
2026-05-08 08:24 68.69264 87.43110 17733 ft 310 kts 352°
2026-05-08 08:24 68.71405 87.42678 17316 ft 308 kts 352°
2026-05-08 08:24 68.73535 87.42240 16912 ft 306 kts 352°
2026-05-08 08:25 68.75647 87.41802 16528 ft 304 kts 352°
2026-05-08 08:25 68.77748 87.41371 16131 ft 302 kts 352°
2026-05-08 08:25 68.79838 87.40938 15768 ft 300 kts 352°
2026-05-08 08:25 68.81940 87.40502 15401 ft 298 kts 352°
2026-05-08 08:26 68.83973 87.40081 15053 ft 296 kts 352°
2026-05-08 08:26 68.86048 87.39652 14694 ft 295 kts 352°
2026-05-08 08:26 68.88098 87.39492 14342 ft 296 kts
2026-05-08 08:26 68.90131 87.40384 14022 ft 296 kts
2026-05-08 08:27 68.92148 87.41492 13697 ft 294 kts
2026-05-08 08:27 68.94151 87.42586 13381 ft 293 kts
2026-05-08 08:27 68.96148 87.43672 13007 ft 291 kts
2026-05-08 08:27 68.98126 87.44748 12638 ft 289 kts
2026-05-08 08:28 69.00090 87.45819 12290 ft 287 kts
2026-05-08 08:28 69.02041 87.46883 11937 ft 284 kts
2026-05-08 08:28 69.03978 87.47941 11582 ft 282 kts
2026-05-08 08:28 69.05898 87.48989 11226 ft 280 kts
2026-05-08 08:29 69.07805 87.50034 10873 ft 278 kts
2026-05-08 08:29 69.09696 87.51071 10620 ft 276 kts
2026-05-08 08:29 69.11556 87.52524 10613 ft 281 kts 16°
2026-05-08 08:29 69.13380 87.54521 10613 ft 281 kts 16°
2026-05-08 08:30 69.15199 87.56506 10604 ft 281 kts 16°
2026-05-08 08:30 69.17019 87.58493 10214 ft 280 kts 16°
2026-05-08 08:30 69.20695 87.62529 9153 ft 286 kts 16°
2026-05-08 08:31 69.22547 87.64574 8592 ft 287 kts 16°
2026-05-08 08:31 69.24401 87.66627 8147 ft 283 kts 16°
2026-05-08 08:31 69.26183 87.68612 7968 ft 270 kts 16°
2026-05-08 08:31 69.27923 87.70548 7580 ft 267 kts 16°
2026-05-08 08:32 69.29643 87.72464 7179 ft 264 kts 16°
2026-05-08 08:32 69.31347 87.74360 6767 ft 262 kts 16°
2026-05-08 08:32 69.33038 87.76244 6363 ft 260 kts 16°
2026-05-08 08:32 69.34717 87.78113 5918 ft 259 kts 15°
2026-05-08 08:33 69.36384 87.79982 5712 ft 248 kts 16°
2026-05-08 08:33 69.37967 87.81764 5392 ft 242 kts 16°
2026-05-08 08:33 69.39550 87.83161 4995 ft 234 kts
2026-05-08 08:33 69.41110 87.82840 4704 ft 221 kts 341°
2026-05-08 08:34 69.42449 87.81031 4646 ft 202 kts 323°
2026-05-08 08:34 69.43406 87.78322 4586 ft 189 kts 306°
2026-05-08 08:34 69.44093 87.75256 4506 ft 180 kts 303°
2026-05-08 08:34 69.44754 87.72273 4427 ft 177 kts 303°
2026-05-08 08:35 69.45413 87.69304 4339 ft 177 kts 304°
2026-05-08 08:35 69.46073 87.66333 4256 ft 178 kts 304°
2026-05-08 08:35 69.46521 87.63076 4164 ft 184 kts 272°
2026-05-08 08:35 69.45994 87.59756 3962 ft 196 kts 231°
2026-05-08 08:36 69.44892 87.57331 3658 ft 204 kts 218°
2026-05-08 08:36 69.43702 87.55277 3365 ft 195 kts 216°
2026-05-08 08:36 69.42556 87.53382 3065 ft 186 kts 216°
2026-05-08 08:36 69.41469 87.51564 2793 ft 176 kts 217°
2026-05-08 08:37 69.40491 87.49905 2572 ft 151 kts 218°
2026-05-08 08:37 69.39654 87.48464 2500 ft 134 kts 219°
2026-05-08 08:37 69.38879 87.47113 2426 ft 129 kts 219°
2026-05-08 08:37 69.38130 87.45801 2244 ft 124 kts 220°
2026-05-08 08:38 69.37406 87.44514 2061 ft 122 kts 220°
2026-05-08 08:38 69.36696 87.43242 1880 ft 120 kts 220°
2026-05-08 08:38 69.35995 87.41984 1705 ft 119 kts 220°
2026-05-08 08:38 69.35298 87.40730 1502 ft 118 kts 221°
2026-05-08 08:39 69.34600 87.39475 1305 ft 119 kts 220°
2026-05-08 08:39 69.33900 87.38216 1118 ft 119 kts 219°
2026-05-08 08:39 69.33200 87.36958 953 ft 120 kts 219°
2026-05-08 08:39 69.32495 87.35697 810 ft 120 kts 218°
2026-05-08 08:40 69.31790 87.34420 638 ft 120 kts 219°
2026-05-08 08:40 69.31161 87.33284 610 ft 88 kts 213°
2026-05-08 08:40 69.30879 87.32779 611 ft 20 kts 213°
2026-05-08 08:40 69.30826 87.32674 604 ft 6 kts 139°
2026-05-08 08:41 69.30843 87.32714 615 ft 7 kts 27°
2026-05-08 08:41 69.30910 87.32840 612 ft 14 kts 34°
2026-05-08 08:41 69.30993 87.32990 612 ft 15 kts 32°
2026-05-08 08:41 69.31096 87.33169 612 ft 19 kts 32°
2026-05-08 08:42 69.31224 87.33402 611 ft 23 kts 32°
2026-05-08 08:42 69.31361 87.33642 614 ft 24 kts 31°
2026-05-08 08:42 69.31504 87.33900 609 ft 25 kts 32°
2026-05-08 08:42 69.31672 87.33857 608 ft 25 kts 349°
2026-05-08 08:43 69.31841 87.33752 615 ft 25 kts 347°
2026-05-08 08:43 69.31987 87.33815 610 ft 22 kts 31°
2026-05-08 08:43 69.32123 87.34052 612 ft 23 kts 33°
2026-05-08 08:43 69.32255 87.34295 615 ft 21 kts 33°
2026-05-08 08:44 69.32316 87.34383 610 ft 3 kts 335°
2026-05-08 08:44 69.32334 87.34318 610 ft 6 kts 300°
2026-05-08 08:44 69.32354 87.34230 618 ft 0 kts 302°